Romeoville, IL

2:55 AM CDT on July 23, 2017 (GMT -0500)
Lewis University

Weather History for KLOT - May, 2014

Change the Weather History Date:

Tuesday, May 6, 2014

  Actual Average Record
Temperature  
Mean Temperature 54 °F 57 °F  
Max Temperature 66 °F 68 °F 86 °F (2004)
Min Temperature 42 °F 47 °F 30 °F (1992)
Degree Days  
Heating Degree Days 11 8  
Month to date heating degree days 85 54  
Since 1 July heating degree days 7203 6048  
Cooling Degree Days 0 1  
Month to date cooling degree days 0 4  
Year to date cooling degree days 0 9  
Growing Degree Days 4 (Base 50)    
Moisture  
Dew Point 37 °F    
Average Humidity 49    
Maximum Humidity 77    
Minimum Humidity 34    
Precipitation  
Precipitation T in 0.14 in 1.74 in (1998)
Month to date precipitation 0.14 0.86  
Year to date precipitation 10.92 11.30  
Sea Level Pressure  
Sea Level Pressure 29.92 in    
Wind  
Wind Speed 14 mph (ENE)    
Max Wind Speed 21 mph    
Max Gust Speed 26 mph    
Visibility 10 miles    
Events      
T = Trace of Precipitation, MM = Missing Value Source: NWS Daily Summary

Daily Weather History Graph

Daily Weather History Graph

Search for Another Location

Airport or City:

Trip Planner

Search our weather history database for the weather conditions in past years. The results will help you decide how hot, cold, wet, or windy it might be!

Date:

Astronomy

May. 06, 2014 Rise Set
Actual Time 5:42 AM CDT 7:55 PM CDT
Civil Twilight 5:12 AM CDT 8:26 PM CDT
Nautical Twilight 4:34 AM CDT 9:04 PM CDT
Astronomical Twilight 3:52 AM CDT 9:46 PM CDT
Moon 11:59 AM CDT (5/6) 1:14 AM CDT (5/6)
Length of Visible Light 15h 14m
Length of Day
14h 12m
Waxing Crescent, 46% of the Moon is Illuminated
May 6
Waxing Crescent
May 6
First Quarter
May 14
Full
May 21
Last Quarter
May 28
New

Hourly Weather History & Observations

Time (CDT) Temp. Windchill Dew Point Humidity Pressure Visibility Wind Dir Wind Speed Gust Speed Precip Events Conditions
12:10 AM 43.7 °F 36.9 °F 33.1 °F 66% 29.98 in 10.0 mi ENE 13.8 mph - N/A   Clear
12:30 AM 43.5 °F 37.5 °F 32.9 °F 66% 29.99 in 10.0 mi NE 11.5 mph 20.7 mph N/A   Clear
12:50 AM 43.5 °F 36.4 °F 32.7 °F 66% 29.98 in 10.0 mi NE 15.0 mph 20.7 mph N/A   Clear
1:10 AM 43.7 °F 36.6 °F 32.5 °F 65% 29.98 in 10.0 mi ENE 15.0 mph - N/A   Clear
1:30 AM 43.7 °F 36.0 °F 32.0 °F 63% 29.97 in 10.0 mi ENE 17.3 mph - N/A   Clear
1:50 AM 43.7 °F 35.7 °F 32.0 °F 63% 29.96 in 10.0 mi NE 18.4 mph - N/A   Clear
2:10 AM 43.7 °F 36.9 °F 32.0 °F 63% 29.97 in 10.0 mi ENE 13.8 mph - N/A   Clear
2:30 AM 43.0 °F 36.8 °F 32.0 °F 65% 29.97 in 10.0 mi NE 11.5 mph - N/A   Clear
6:30 AM 43.2 °F 38.4 °F 36.5 °F 77% 29.99 in 10.0 mi ENE 8.1 mph - N/A   Clear
6:50 AM 45.0 °F 40.1 °F 37.0 °F 74% 30.00 in 10.0 mi ENE 9.2 mph - N/A   Clear
7:10 AM 46.4 °F 41.5 °F 37.4 °F 71% 30.00 in 10.0 mi East 10.4 mph - N/A   Clear
7:30 AM 48.2 °F - 37.2 °F 66% 30.00 in 10.0 mi East 11.5 mph - N/A   Clear
7:50 AM 49.6 °F - 36.9 °F 61% 30.00 in 10.0 mi East 11.5 mph - N/A   Clear
8:10 AM 51.3 °F - 35.8 °F 55% 30.00 in 7.0 mi East 11.5 mph - N/A   Clear
8:30 AM 53.1 °F - 35.1 °F 50% 30.00 in 10.0 mi East 13.8 mph - N/A   Clear
9:10 AM 55.8 °F - 32.9 °F 42% 30.00 in 10.0 mi ESE 15.0 mph 21.9 mph N/A   Clear
9:30 AM - - - N/A% 29.99 in - ESE 16.1 mph - N/A   Unknown
11:33 AM - - - N/A% 29.97 in - ENE 15.0 mph - N/A   Unknown
11:56 AM 62.6 °F - 37.4 °F 39% 29.97 in - East 15.0 mph 21.9 mph 0.01 in   Clear
12:15 PM 62.8 °F - 36.7 °F 38% 29.97 in 10.0 mi East 12.7 mph 19.6 mph N/A   Clear
12:16 PM 62.6 °F - 37.4 °F 39% 29.96 in 10.0 mi ESE 15.0 mph 19.6 mph N/A   Clear
12:35 PM 63.5 °F - 37.0 °F 38% 29.96 in 10.0 mi East 15.0 mph - N/A   Clear
12:55 PM 63.7 °F - 36.3 °F 36% 29.95 in 10.0 mi East 18.4 mph 23.0 mph N/A   Clear
1:15 PM 64.4 °F - 36.1 °F 35% 29.94 in 10.0 mi East 16.1 mph 23.0 mph N/A   Clear
1:35 PM 64.9 °F - 36.0 °F 34% 29.94 in 10.0 mi East 16.1 mph 21.9 mph N/A   Clear
1:55 PM 65.1 °F - 36.5 °F 35% 29.93 in 10.0 mi East 16.1 mph 20.7 mph N/A   Clear
2:15 PM 65.5 °F - 36.9 °F 35% 29.92 in 10.0 mi East 17.3 mph - N/A   Clear
2:35 PM 65.3 °F - 36.7 °F 35% 29.92 in 10.0 mi East 18.4 mph 23.0 mph N/A   Clear
3:15 PM 65.5 °F - 36.9 °F 35% 29.91 in 10.0 mi East 19.6 mph - N/A   Clear
3:35 PM 66.0 °F - 37.9 °F 36% 29.89 in 10.0 mi East 19.6 mph - N/A   Clear
3:55 PM 65.3 °F - 37.8 °F 36% 29.87 in 10.0 mi ENE 20.7 mph - N/A   Clear
4:15 PM 64.8 °F - 37.6 °F 37% 29.87 in 10.0 mi ENE 19.6 mph 26.5 mph N/A   Clear
4:35 PM 64.4 °F - 38.7 °F 39% 29.86 in 10.0 mi ENE 18.4 mph 21.9 mph N/A   Clear
4:55 PM 63.7 °F - 37.8 °F 38% 29.87 in 10.0 mi East 16.1 mph 21.9 mph N/A   Clear
5:15 PM 63.5 °F - 38.3 °F 39% 29.87 in 10.0 mi East 17.3 mph 23.0 mph N/A   Clear
5:35 PM 63.1 °F - 38.3 °F 40% 29.86 in 10.0 mi ENE 17.3 mph - N/A   Clear
5:55 PM 62.4 °F - 38.8 °F 42% 29.86 in 10.0 mi ENE 15.0 mph 25.3 mph N/A   Scattered Clouds
6:15 PM 61.2 °F - 37.9 °F 42% 29.87 in 10.0 mi ENE 13.8 mph - N/A   Overcast
6:35 PM 60.4 °F - 38.7 °F 45% 29.84 in 10.0 mi East 11.5 mph - N/A   Mostly Cloudy
6:55 PM 60.8 °F - 38.8 °F 44% 29.85 in 10.0 mi ENE 16.1 mph - N/A   Scattered Clouds
7:15 PM 59.9 °F - 39.6 °F 47% 29.86 in 10.0 mi ENE 12.7 mph 16.1 mph N/A   Clear
7:35 PM 58.8 °F - 39.6 °F 49% 29.86 in 10.0 mi ENE 12.7 mph - N/A   Clear
7:55 PM 58.1 °F - 39.6 °F 50% 29.87 in 10.0 mi ENE 12.7 mph - N/A   Clear
8:15 PM 57.4 °F - 39.9 °F 52% 29.86 in 10.0 mi East 12.7 mph - N/A   Clear
8:35 PM 57.2 °F - 40.1 °F 53% 29.87 in 10.0 mi East 10.4 mph - N/A   Clear
8:55 PM 56.7 °F - 40.1 °F 54% 29.85 in 10.0 mi ENE 13.8 mph - N/A   Clear
9:15 PM 56.3 °F - 40.3 °F 55% 29.87 in 10.0 mi ENE 12.7 mph - N/A   Clear
9:35 PM 55.6 °F - 40.6 °F 57% 29.86 in 10.0 mi ENE 10.4 mph - N/A   Clear
9:55 PM 55.9 °F - 40.8 °F 57% 29.86 in 10.0 mi ENE 12.7 mph - N/A   Clear
10:15 PM 56.8 °F - 41.0 °F 55% 29.86 in 10.0 mi East 11.5 mph - N/A   Scattered Clouds
10:55 PM 58.3 °F - 40.3 °F 51% 29.85 in 10.0 mi East 12.7 mph - N/A   Scattered Clouds
11:15 PM 60.3 °F - 37.9 °F 44% 29.85 in 10.0 mi ESE 17.3 mph 21.9 mph N/A   Scattered Clouds
11:35 PM 59.9 °F - 37.2 °F 43% 29.85 in 10.0 mi ESE 16.1 mph - N/A   Mostly Cloudy
11:55 PM 59.7 °F - 36.7 °F 42% 29.85 in 10.0 mi ESE 16.1 mph 19.6 mph N/A   Mostly Cloudy